This is the latest recevied weather packets stored in our database for station/object KJ7AZ-3. If no packets are shown the sender has not sent any weather packets the latest 1 day(s).
| Time | Temp. | Humidity | Pressure | Rain* | Wind** | Luminosity | Snow |
|---|---|---|---|---|---|---|---|
| 1778044924 | 9.44° C | - | - | 0 mm | 0.45 m/s, 221° | - | - |
| 1778044025 | 10° C | - | - | 0 mm | 0 m/s | - | - |
| 1778043126 | 10.56° C | - | - | 0 mm | 0.45 m/s, 190° | - | - |
| 1778042228 | 10.56° C | - | - | 0 mm | 0.45 m/s, 207° | - | - |
| 1778041328 | 10° C | - | - | 0 mm | 0 m/s | - | - |
| 1778040430 | 10.56° C | - | - | 0 mm | 0 m/s | - | - |
| 1778039531 | 9.44° C | - | - | 0 mm | 0 m/s | - | - |
| 1778038632 | 9.44° C | - | - | 0 mm | 0.45 m/s, 203° | - | - |
| 1778037733 | 10° C | - | - | 0 mm | 0 m/s | - | - |
| 1778036834 | 11.11° C | - | - | 0 mm | 0.45 m/s, 257° | - | - |
| 1778035036 | 12.22° C | - | - | 0 mm | 0 m/s | - | - |
| 1778034137 | 12.22° C | - | - | 0 mm | 0.89 m/s, 224° | - | - |
| 1778033238 | 11.67° C | - | - | 0 mm | 0.89 m/s, 214° | - | - |
| 1778032339 | 11.67° C | - | - | 0 mm | 2.24 m/s, 249° | - | - |
| 1778031440 | 11.11° C | - | - | 0 mm | 1.34 m/s, 252° | - | - |
| 1778028742 | 18.33° C | - | - | 0 mm | 2.24 m/s, 167° | - | - |
| 1778026944 | 17.22° C | - | - | 0 mm | 6.26 m/s, 262° | - | - |
| 1778026045 | 17.78° C | - | - | 0 mm | 3.58 m/s, 252° | - | - |
| 1778025146 | 18.89° C | - | - | 0 mm | 4.02 m/s, 280° | - | - |
| 1778024247 | 18.89° C | - | - | 0 mm | 5.81 m/s, 240° | - | - |
| 1778023347 | 20.56° C | - | - | 0 mm | 4.47 m/s, 311° | - | - |
| 1778022448 | 20.56° C | - | - | 0 mm | 4.47 m/s, 271° | - | - |
| 1778021549 | 21.11° C | - | - | 0 mm | 4.92 m/s, 262° | - | - |
| 1778020649 | 21.11° C | - | - | 0 mm | 4.02 m/s, 240° | - | - |
| 1778019750 | 20.56° C | - | - | 0 mm | 6.26 m/s, 183° | - | - |
* Rain latest hour (hover to see other rain measurements)
** Current wind speed in m/s (hover to see current wind gust speed)